Location: Newark
(33.6439°N, 114.9881°W)
Time: 15:11:33
(UTC+00:00)

Tiros 1 - Pass Details

Date: 22 July 2019
Orbit: 631 x 664 km, 48.4° (Epoch: 23 August)

Event Time Altitude Azimuth Distance (km) Brightness Sun altitude
Rises 17:44:01 0° 209° (SSW) 2,958 10.5 59.8°
Reaches altitude 10° 17:46:28 10° 200° (SSW) 2,055 9.9 60.2°
Maximum altitude 17:50:49 37° 134° (SE) 1,029 9.5 61.1°
Drops below altitude 10° 17:55:13 10° 68° (ENE) 2,077 10.2 61.9°
Sets 17:57:43 0° 60° (ENE) 2,994 10.8 62.4°
